"startDT [UTC]","vpos","CH4 [ppm]","stdev(CH4) [ppm]","CO2 [ppm]","stdev(CO2) [ppm]","H2O_reported [%]","stdev(H2O_reported)","CavityPressure [torr]","CavityTemp [C]","OutletValve","CH4_dry [ppm]","CO2_dry [ppm]","DasTemp [C]","EtalonTemp [C]","WarmBoxTemp [C]","MPVPosition","T_ECpre [C]","T_EC1 [C]","T_EC2 [C]","p_inlet [hPa]","p_in [hPa]","p_out [hPa]","T_inlet [C]","RH_inlet [%]","dwpt_inlet [C]","T_vent [C]","RH_vent [%]","dwpt_vent [C]","flow_vent [l min-1]","flow_inlet [l min-1]","dwpt_sample [C]","T_room [C]"
2016-06-09 00:05:00,0.0,,,,,,,,,,,,,,,,,,0.10,-272.84,-272.90,-18,558,-963,29.4,13.2,-1.7,29.6,13.1,-1.6,5.73,1.64,5.1,28.4
2016-06-09 00:06:00,0.0,,,,,,,,,,,,,,,,,,0.10,-272.84,-272.90,-18,558,-963,29.5,14.0,-0.9,29.7,13.6,-1.1,5.73,1.72,5.1,28.7
2016-06-09 00:07:00,0.0,,,,,,,,,,,,,,,,,,0.10,-272.84,-272.91,-18,558,-963,29.6,13.7,-1.0,29.8,14.0,-0.6,5.73,1.89,5.1,29.0
2016-06-09 00:08:00,0.0,,,,,,,,,,,,,,,,,,0.10,-272.82,-272.89,-17,558,-963,29.6,13.4,-1.3,29.8,13.3,-1.2,5.73,1.73,5.1,29.3
2016-06-09 00:09:00,0.0,,,,,,,,,,,,,,,,,,0.10,-272.81,-272.89,-17,558,-963,29.7,13.5,-1.2,29.8,13.5,-1.1,5.73,1.58,5.5,29.6
2016-06-09 00:10:00,0.0,,,,,,,,,,,,,,,,,,0.10,-272.82,-272.89,-19,558,-963,29.8,13.9,-0.7,29.9,13.8,-0.7,5.73,1.90,5.9,29.9
2016-06-09 00:11:00,0.0,,,,,,,,,,,,,,,,,,0.10,-272.81,-272.90,-18,558,-963,29.8,14.7,0.1,29.9,14.4,-0.1,5.73,1.66,5.8,30.2
2016-06-09 00:12:00,0.0,,,,,,,,,,,,,,,,,,0.10,-272.81,-272.87,-17,558,-963,29.8,15.5,0.8,30.0,15.2,0.7,5.73,1.71,5.8,30.5
2016-06-09 00:13:00,0.0,,,,,,,,,,,,,,,,,,0.10,-272.81,-272.88,-20,533,-948,29.9,14.7,0.1,30.0,15.3,0.8,5.73,1.87,5.7,30.7
2016-06-09 00:14:00,0.0,,,,,,,,,,,,,,,,,,0.10,-272.81,-272.88,-20,530,-947,29.9,13.8,-0.7,30.0,14.0,-0.4,5.73,1.58,5.7,31.0
2016-06-09 00:15:00,0.0,,,,,,,,,,,,,,,,,,0.10,-272.80,-272.86,-19,531,-946,29.9,13.4,-1.0,30.0,13.7,-0.8,5.73,1.88,5.7,31.2
2016-06-09 00:16:00,0.0,,,,,,,,,,,,,,,,,,0.10,-272.79,-272.87,-21,531,-947,29.9,14.9,0.4,30.0,14.5,0.1,5.73,1.73,5.7,31.4
2016-06-09 00:17:00,0.0,,,,,,,,,,,,,,,,,,0.10,-272.80,-272.87,-20,532,-947,29.9,15.1,0.6,30.0,15.0,0.5,5.73,1.67,5.6,31.6
2016-06-09 00:18:00,0.0,,,,,,,,,,,,,,,,,,0.10,-272.79,-272.86,-19,531,-947,30.0,14.7,0.2,30.0,15.1,0.7,5.73,1.91,5.6,31.7
2016-06-09 00:19:00,0.0,,,,,,,,,,,,,,,,,,0.10,-272.78,-272.85,-21,531,-947,30.0,14.4,-0.0,30.0,14.3,-0.1,5.73,1.57,5.6,31.9
2016-06-09 00:20:00,0.0,,,,,,,,,,,,,,,,,,0.10,-272.79,-272.86,-20,532,-947,30.0,14.6,0.2,30.1,14.8,0.4,5.73,1.92,5.6,32.0
2016-06-09 00:21:00,0.0,1.88814,0.00074,400.348,0.150,0.8127,0.0094,140.010,44.951,31835.70719,1.90583,404.367,38.478,44.976,44.994,0.00,0.10,-272.79,-272.86,-20,532,-947,30.1,14.1,-0.3,30.1,14.3,-0.1,5.73,1.62,5.6,32.2
2016-06-09 00:22:00,0.0,1.88807,0.00040,400.166,0.062,0.7928,0.0210,140.008,45.108,31961.96194,1.90316,404.083,38.664,45.096,45.078,0.00,0.10,-272.78,-272.85,-21,532,-947,30.1,13.7,-0.7,30.1,13.9,-0.4,5.73,1.84,5.6,32.3
2016-06-09 00:23:00,0.0,1.88715,0.00047,399.953,0.068,0.7988,0.0156,140.004,45.205,32061.50505,1.90238,403.895,38.902,45.157,45.113,0.00,0.10,-272.77,-272.85,-19,532,-947,30.1,13.7,-0.7,30.1,13.8,-0.6,5.73,1.70,5.6,32.4
2016-06-09 00:24:00,0.0,1.88731,0.00053,399.975,0.093,0.7836,0.0224,140.004,45.243,32136.66369,1.90223,403.839,39.139,45.175,45.113,0.00,0.10,-272.79,-272.86,-22,532,-947,30.1,13.4,-0.9,30.1,13.4,-0.9,5.73,1.78,5.6,32.5
2016-06-09 00:25:00,0.0,1.88755,0.00047,399.960,0.053,0.7838,0.0158,140.003,45.238,32188.68734,1.90247,403.825,39.361,45.167,45.096,0.00,0.10,-272.77,-272.85,-20,532,-947,30.1,13.3,-1.0,30.1,13.5,-0.8,5.73,1.73,5.6,32.7
2016-06-09 00:26:00,0.0,1.88861,0.00047,400.083,0.051,0.7633,0.0057,140.000,45.205,32222.36211,1.90311,403.845,39.565,45.147,45.071,0.00,0.10,-272.78,-272.84,-21,532,-947,30.1,12.9,-1.4,30.2,13.2,-1.1,5.73,1.78,5.6,32.8
2016-06-09 00:27:00,0.0,1.88892,0.00038,400.084,0.025,0.7887,0.0096,140.002,45.159,32243.66519,1.90393,403.970,39.756,45.123,45.047,0.00,0.10,-272.78,-272.86,-21,532,-947,30.2,13.4,-0.9,30.2,13.4,-0.9,5.73,1.71,5.6,32.9
2016-06-09 00:28:00,0.0,1.88919,0.00042,400.094,0.051,0.8151,0.0148,139.997,45.107,32253.28255,1.90471,404.116,39.910,45.101,45.026,0.00,0.10,-272.79,-272.85,-21,532,-947,30.2,13.9,-0.3,30.2,13.9,-0.4,5.73,1.82,5.6,33.0
2016-06-09 00:29:00,0.0,1.88930,0.00055,400.033,0.103,0.8528,0.0266,139.998,45.055,32253.95802,1.90557,404.244,40.054,45.084,45.010,0.00,0.10,-272.76,-272.84,-21,532,-947,30.2,14.6,0.4,30.3,14.5,0.3,5.73,1.65,5.6,33.1
2016-06-09 00:30:00,0.0,1.89064,0.00094,400.321,0.198,0.8064,0.0436,139.997,45.009,32250.64209,1.90602,404.307,40.176,45.071,45.000,0.00,0.10,-272.78,-272.84,-21,532,-947,30.2,13.5,-0.7,30.3,14.2,-0.0,5.73,1.88,5.6,33.2
2016-06-09 00:31:00,0.0,1.89133,0.00032,400.507,0.040,0.7872,0.0107,139.998,44.972,32242.95998,1.90636,404.392,40.282,45.063,44.993,0.00,0.10,-272.77,-272.85,-21,532,-947,30.3,13.3,-0.9,30.3,13.5,-0.7,5.73,1.59,5.6,33.3
2016-06-09 00:32:00,0.0,1.89063,0.00056,400.506,0.070,0.8075,0.0204,140.001,44.943,32235.77460,1.90602,404.493,40.363,45.058,44.990,0.00,0.10,-272.78,-272.83,-21,532,-947,30.3,13.6,-0.6,30.3,13.8,-0.4,5.73,1.91,5.6,33.4
2016-06-09 00:33:00,0.0,1.89181,0.00033,400.539,0.086,0.7942,0.0346,139.996,44.926,32222.55238,1.90694,404.457,40.435,45.056,44.989,0.00,0.10,-272.77,-272.84,-21,533,-947,30.3,13.6,-0.6,30.3,13.5,-0.7,5.73,1.61,5.6,33.6
2016-06-09 00:34:00,0.0,1.89152,0.00033,400.493,0.051,0.8178,0.0175,140.000,44.918,32212.74204,1.90717,404.540,40.491,45.056,44.989,0.00,0.10,-272.77,-272.85,-21,532,-947,30.4,13.7,-0.4,30.3,14.1,-0.2,5.73,1.83,5.6,33.6
2016-06-09 00:35:00,0.0,1.89135,0.00037,400.497,0.057,0.8136,0.0187,139.998,44.918,32202.20858,1.90692,404.521,40.539,45.057,44.990,0.00,0.10,-272.77,-272.84,-21,533,-947,30.4,13.7,-0.5,30.3,14.0,-0.2,5.73,1.75,5.6,33.7
2016-06-09 00:36:00,0.0,1.89120,0.00042,400.584,0.094,0.7832,0.0265,139.997,44.922,32192.06259,1.90610,404.448,40.579,45.058,44.992,0.00,0.10,-272.76,-272.84,-22,532,-947,30.4,13.2,-0.9,30.3,13.4,-0.7,5.73,1.66,5.6,33.8
2016-06-09 00:37:00,0.0,1.89069,0.00059,400.380,0.052,0.8352,0.0225,139.999,44.930,32184.93532,1.90667,404.512,40.620,45.060,44.993,0.00,0.10,-272.77,-272.84,-21,533,-947,30.4,14.1,-0.0,30.3,14.2,-0.0,5.73,1.89,5.6,33.9
2016-06-09 00:38:00,0.0,1.89111,0.00033,400.468,0.054,0.8029,0.0147,139.997,44.938,32176.97119,1.90644,404.433,40.637,45.061,44.995,0.00,0.10,-272.76,-272.84,-22,532,-947,30.4,13.4,-0.7,30.4,13.8,-0.3,5.73,1.60,5.6,33.9
2016-06-09 00:39:00,0.0,1.89103,0.00052,400.489,0.045,0.7883,0.0116,140.000,44.947,32170.97265,1.90606,404.384,40.683,45.062,44.996,0.00,0.10,-272.77,-272.83,-21,533,-947,30.5,13.1,-0.9,30.4,13.5,-0.6,5.73,1.83,5.6,34.0
2016-06-09 00:40:00,0.0,1.89108,0.00038,400.459,0.051,0.7881,0.0128,139.999,44.956,32167.95229,1.90614,404.349,40.695,45.064,44.997,0.00,0.10,-272.77,-272.83,-23,533,-947,30.5,13.2,-0.9,30.4,13.4,-0.7,5.73,1.77,5.6,34.0
2016-06-09 00:41:00,0.0,1.89022,0.00052,400.310,0.062,0.8179,0.0217,139.999,44.964,32165.46869,1.90587,404.354,40.723,45.064,44.998,0.00,0.10,-272.77,-272.85,-21,533,-947,30.5,13.6,-0.5,30.4,13.8,-0.3,5.73,1.63,5.6,33.9
2016-06-09 00:42:00,0.0,1.88997,0.00040,400.286,0.057,0.8177,0.0192,139.997,44.971,32157.04316,1.90556,404.324,40.750,45.065,44.998,0.00,0.10,-272.77,-272.84,-22,533,-947,30.5,13.6,-0.4,30.4,13.8,-0.3,5.73,1.90,5.6,34.1
2016-06-09 00:43:00,0.0,1.89057,0.00049,400.427,0.072,0.7796,0.0203,140.000,44.977,32152.68362,1.90545,404.278,40.750,45.065,44.999,0.00,0.10,-272.77,-272.83,-21,533,-947,30.6,12.9,-1.1,30.4,13.4,-0.7,5.73,1.66,5.6,34.1
2016-06-09 00:44:00,0.0,1.89035,0.00043,400.387,0.049,0.7789,0.0107,140.001,44.982,32151.77721,1.90522,404.230,40.748,45.066,44.999,0.00,0.10,-272.77,-272.84,-22,533,-947,30.6,12.9,-1.1,30.5,13.2,-0.9,5.73,1.72,5.6,34.2
2016-06-09 00:45:00,0.0,1.89003,0.00054,400.310,0.044,0.7906,0.0125,139.997,44.986,32147.52296,1.90509,404.213,40.725,45.066,44.999,0.00,0.10,-272.77,-272.84,-22,533,-947,30.6,13.0,-1.0,30.5,13.3,-0.7,5.73,1.87,5.6,34.2
2016-06-09 00:46:00,0.0,1.89115,0.00045,400.448,0.042,0.7519,0.0120,139.999,44.989,32143.41895,1.90546,404.157,40.750,45.066,45.000,0.00,0.10,-272.76,-272.83,-21,533,-947,30.6,12.3,-1.7,30.5,12.8,-1.2,5.73,1.61,5.6,34.3
2016-06-09 00:47:00,0.0,1.88984,0.00048,400.249,0.107,0.8075,0.0277,140.000,44.992,32140.61724,1.90527,404.234,40.755,45.067,45.000,0.00,0.10,-272.77,-272.84,-23,533,-947,30.7,13.4,-0.5,30.5,13.3,-0.7,5.73,1.79,5.6,34.4
2016-06-09 00:48:00,0.0,1.88974,0.00036,400.203,0.032,0.8178,0.0113,140.000,44.994,32138.97601,1.90536,404.241,40.798,45.067,45.000,0.00,0.10,-272.77,-272.84,-21,533,-947,30.7,13.5,-0.4,30.6,13.7,-0.3,5.73,1.83,5.6,34.4
2016-06-09 00:49:00,0.0,1.88989,0.00034,400.225,0.070,0.8109,0.0143,140.002,44.996,32138.96566,1.90534,404.229,40.824,45.067,45.000,0.00,0.10,-272.76,-272.83,-22,533,-947,30.7,13.3,-0.6,30.6,13.7,-0.2,5.73,1.60,5.6,34.4
2016-06-09 00:50:00,0.0,1.89061,0.00037,400.304,0.056,0.7823,0.0119,140.000,44.997,32136.75769,1.90553,404.166,40.867,45.066,45.000,0.00,0.10,-272.77,-272.83,-22,533,-947,30.7,12.8,-1.2,30.6,13.3,-0.7,5.73,1.83,5.6,34.5
2016-06-09 00:51:00,0.0,1.89017,0.00061,400.262,0.096,0.7916,0.0226,139.998,44.998,32136.58135,1.90526,404.170,40.879,45.066,44.999,0.00,0.10,-272.77,-272.84,-22,533,-948,30.7,13.0,-0.9,30.6,13.2,-0.8,5.73,1.79,5.6,34.5
2016-06-09 00:52:00,0.0,1.88984,0.00046,400.206,0.050,0.8033,0.0139,140.000,44.998,32136.59068,1.90517,404.171,40.917,45.066,44.999,0.00,0.10,-272.76,-272.84,-23,533,-947,30.8,13.2,-0.6,30.6,13.5,-0.5,5.73,1.61,5.6,34.5
2016-06-09 00:53:00,0.0,1.88986,0.00081,400.132,0.115,0.8168,0.0329,140.001,44.999,32135.18478,1.90545,404.164,40.938,45.066,44.999,0.00,0.10,-272.77,-272.84,-21,533,-947,30.8,13.4,-0.4,30.6,13.7,-0.2,5.73,1.84,5.6,34.6
2016-06-09 00:54:00,0.0,1.89000,0.00057,400.156,0.078,0.8063,0.0201,140.000,44.999,32135.28209,1.90537,404.139,40.963,45.066,44.999,0.00,0.10,-272.77,-272.84,-23,533,-947,30.8,13.1,-0.7,30.6,13.6,-0.4,5.73,1.77,5.6,34.5
2016-06-09 00:55:00,0.0,1.89012,0.00055,400.242,0.066,0.7876,0.0179,140.000,45.000,32135.28096,1.90514,404.129,40.997,45.066,44.999,0.00,0.10,-272.77,-272.84,-22,533,-947,30.8,12.7,-1.1,30.6,13.2,-0.7,5.73,1.61,5.6,34.6
2016-06-09 00:56:00,0.0,1.89036,0.00060,400.224,0.066,0.7851,0.0201,140.000,45.000,32134.95579,1.90534,404.098,41.001,45.066,44.999,0.00,0.10,-272.76,-272.83,-22,534,-947,30.8,12.7,-1.1,30.6,13.1,-0.8,5.73,1.85,5.6,34.6
2016-06-09 00:57:00,0.0,1.89047,0.00050,400.272,0.042,0.7769,0.0117,140.001,45.000,32135.04553,1.90526,404.105,41.024,45.066,44.999,0.00,0.10,-272.77,-272.83,-23,533,-947,30.9,12.6,-1.2,30.7,13.0,-1.0,5.73,1.77,5.6,34.7
2016-06-09 00:58:00,0.0,1.89021,0.00044,400.196,0.062,0.7902,0.0146,139.999,45.000,32134.69951,1.90529,404.095,41.060,45.066,44.999,0.00,0.10,-272.77,-272.83,-22,533,-947,30.9,12.8,-0.9,30.7,13.1,-0.8,5.73,1.61,5.7,34.7
2016-06-09 00:59:00,0.0,1.88953,0.00058,400.078,0.099,0.8300,0.0224,140.000,45.000,32135.91483,1.90536,404.174,41.064,45.066,44.999,0.00,0.10,-272.77,-272.83,-23,534,-947,30.9,13.6,-0.2,30.7,13.6,-0.2,5.73,1.85,5.6,34.7
2016-06-09 01:00:00,3.0,1.87507,0.00419,397.757,0.781,0.1563,0.2685,139.943,45.000,31390.94059,1.87893,398.668,41.094,45.066,44.999,0.00,0.10,-272.77,-272.83,-22,424,-948,30.9,13.4,-0.3,30.7,13.9,0.0,5.73,1.84,5.6,34.7
2016-06-09 01:01:00,3.0,1.87513,0.00039,397.352,0.042,0.0253,0.0019,139.997,45.000,31356.24703,1.87555,397.471,41.125,45.066,44.999,0.00,0.10,-272.76,-272.84,-20,424,-949,30.9,13.4,-0.3,30.7,13.5,-0.3,5.73,1.62,5.6,34.7
2016-06-09 01:02:00,3.0,1.87544,0.00034,397.448,0.034,0.0228,0.0025,139.997,45.000,31339.57220,1.87588,397.556,41.132,45.066,45.000,0.00,0.10,-272.76,-272.84,-21,423,-949,31.0,13.3,-0.4,30.7,13.8,-0.1,5.73,1.67,5.6,34.7
2016-06-09 01:03:00,3.0,1.87538,0.00030,397.499,0.035,0.0180,0.0029,139.998,45.000,31325.23550,1.87570,397.585,41.142,45.066,45.000,0.00,0.10,-272.76,-272.83,-22,423,-948,31.0,13.2,-0.4,30.8,13.6,-0.3,5.73,1.82,5.6,34.8
2016-06-09 01:04:00,3.0,1.87547,0.00040,397.520,0.026,0.0140,0.0021,140.002,45.000,31316.99568,1.87571,397.586,41.178,45.067,45.000,0.00,0.10,-272.77,-272.83,-20,423,-948,31.0,12.9,-0.7,30.8,13.3,-0.5,5.73,1.77,5.6,34.7
2016-06-09 01:05:00,3.0,1.87522,0.00028,397.513,0.041,0.0103,0.0020,139.998,45.000,31308.15323,1.87544,397.565,41.188,45.067,45.000,0.00,0.10,-272.77,-272.83,-21,423,-948,31.0,12.8,-0.8,30.8,13.2,-0.6,5.73,1.62,5.6,34.8
2016-06-09 01:06:00,3.0,1.87538,0.00032,397.538,0.032,0.0091,0.0012,139.999,45.000,31301.77919,1.87553,397.579,41.216,45.067,45.000,0.00,0.10,-272.76,-272.84,-22,423,-948,31.1,13.0,-0.6,30.8,13.3,-0.5,5.73,1.67,5.6,34.8
2016-06-09 01:07:00,3.0,1.87531,0.00033,397.530,0.029,0.0072,0.0023,140.000,45.000,31294.72146,1.87544,397.564,41.240,45.067,45.000,0.00,0.10,-272.76,-272.84,-21,422,-949,31.1,13.0,-0.6,30.8,13.5,-0.3,5.73,1.81,5.6,34.8
2016-06-09 01:08:00,3.0,1.87526,0.00035,397.539,0.034,0.0062,0.0015,139.998,45.000,31289.68070,1.87538,397.570,41.250,45.067,45.000,0.00,0.10,-272.77,-272.84,-21,422,-948,31.1,12.4,-1.2,30.9,12.7,-1.1,5.73,1.78,5.6,34.8
2016-06-09 01:09:00,3.0,1.87564,0.00036,397.547,0.034,0.0057,0.0022,139.999,45.000,31285.80605,1.87572,397.574,41.259,45.067,45.000,0.00,0.10,-272.76,-272.83,-22,422,-949,31.1,12.5,-1.1,30.9,12.9,-0.8,5.73,1.64,5.6,34.8
2016-06-09 01:10:00,3.0,1.87564,0.00032,397.559,0.037,0.0045,0.0017,139.997,45.000,31280.77093,1.87572,397.579,41.299,45.067,45.000,0.00,0.10,-272.77,-272.83,-21,422,-949,31.2,13.7,0.2,30.9,13.7,-0.0,5.73,1.66,5.6,34.9
2016-06-09 01:11:00,3.0,1.87548,0.00033,397.565,0.024,0.0037,0.0018,139.999,45.000,31279.73834,1.87557,397.583,41.304,45.067,45.000,0.00,0.10,-272.77,-272.83,-20,422,-949,31.2,14.5,1.0,31.0,14.8,1.1,5.73,1.80,5.6,34.9
2016-06-09 01:12:00,3.0,1.87560,0.00038,397.557,0.026,0.0032,0.0022,139.999,45.000,31277.73183,1.87564,397.572,41.319,45.067,45.000,0.00,0.10,-272.77,-272.83,-22,422,-949,31.2,12.9,-0.6,31.0,13.5,-0.2,5.73,1.80,5.6,34.9
2016-06-09 01:13:00,3.0,1.87553,0.00031,397.530,0.023,0.0032,0.0020,139.997,45.000,31275.70406,1.87560,397.547,41.367,45.067,45.000,0.00,0.10,-272.76,-272.83,-22,422,-949,31.3,13.1,-0.4,31.0,13.4,-0.2,5.73,1.66,5.6,34.8
2016-06-09 01:14:00,3.0,1.87542,0.00045,397.554,0.025,0.0025,0.0023,140.001,45.000,31274.34009,1.87548,397.565,41.376,45.067,45.000,0.00,0.10,-272.76,-272.84,-21,422,-949,31.3,12.5,-0.9,31.0,13.1,-0.5,5.73,1.63,5.6,34.9
2016-06-09 01:15:00,3.0,1.87564,0.00034,397.578,0.036,0.0026,0.0013,139.998,45.000,31270.66967,1.87569,397.590,41.423,45.067,45.000,0.00,0.10,-272.77,-272.84,-21,422,-949,31.3,12.7,-0.8,31.0,12.8,-0.8,5.73,1.77,5.6,34.9
2016-06-09 01:16:00,3.0,1.87566,0.00037,397.571,0.033,0.0029,0.0021,139.998,45.000,31266.84015,1.87569,397.585,41.438,45.067,45.000,0.00,0.10,-272.76,-272.82,-22,421,-949,31.3,12.8,-0.6,31.1,13.2,-0.4,5.73,1.82,5.6,35.0
2016-06-09 01:17:00,3.0,1.87569,0.00044,397.573,0.030,0.0014,0.0021,140.000,45.000,31265.50119,1.87573,397.580,41.460,45.067,45.000,0.00,0.10,-272.77,-272.83,-21,421,-949,31.3,13.3,-0.0,31.1,13.5,-0.0,5.73,1.70,5.6,35.0
2016-06-09 01:18:00,3.0,1.87550,0.00037,397.581,0.031,0.0014,0.0015,140.000,45.000,31264.63183,1.87552,397.587,41.497,45.066,45.000,0.00,0.10,-272.77,-272.84,-21,421,-949,31.4,13.0,-0.3,31.1,13.5,-0.1,5.73,1.62,5.6,35.0
2016-06-09 01:19:00,3.0,1.87579,0.00036,397.584,0.022,0.0018,0.0026,140.002,45.000,31261.48566,1.87580,397.593,41.509,45.067,45.000,0.00,0.10,-272.76,-272.84,-22,421,-949,31.4,14.1,0.8,31.2,14.2,0.7,5.73,1.72,5.6,35.0
2016-06-09 01:20:00,3.0,1.87566,0.00050,397.598,0.039,0.0012,0.0016,139.996,45.000,31257.30776,1.87573,397.603,41.543,45.066,45.000,0.00,0.10,-272.76,-272.83,-22,420,-949,31.4,13.9,0.6,31.2,14.4,0.9,5.73,1.82,5.6,34.9
2016-06-09 01:21:00,3.0,1.87547,0.00033,397.581,0.034,0.0012,0.0013,139.998,45.001,31257.86751,1.87547,397.589,41.563,45.066,44.999,0.00,0.10,-272.77,-272.83,-21,420,-949,31.5,13.2,-0.1,31.2,13.6,0.1,5.73,1.75,5.6,34.9
2016-06-09 01:22:00,3.0,1.87537,0.00031,397.577,0.022,0.0015,0.0020,139.997,45.000,31257.36699,1.87540,397.583,41.569,45.067,45.000,0.00,0.10,-272.77,-272.83,-21,420,-949,31.5,13.4,0.2,31.2,13.8,0.4,5.73,1.63,5.6,34.9
2016-06-09 01:23:00,3.0,1.87578,0.00039,397.574,0.029,0.0016,0.0016,139.998,45.000,31255.84360,1.87581,397.582,41.607,45.067,45.000,0.00,0.10,-272.76,-272.82,-22,420,-949,31.5,13.8,0.6,31.2,14.1,0.7,5.73,1.66,5.6,35.1
2016-06-09 01:24:00,3.0,1.87565,0.00040,397.586,0.039,0.0016,0.0016,140.000,45.000,31255.74919,1.87568,397.593,41.629,45.067,45.000,0.00,0.10,-272.77,-272.83,-21,420,-949,31.5,13.5,0.2,31.2,14.0,0.5,5.73,1.79,5.6,35.1
2016-06-09 01:25:00,2.0,1.84912,0.00959,390.714,2.740,0.0217,0.0247,140.039,45.001,32069.26827,1.85052,390.951,41.646,45.067,45.000,0.00,0.10,-272.77,-272.84,-21,541,-948,31.6,13.0,-0.2,31.3,13.4,0.0,5.73,1.87,5.6,35.2
2016-06-09 01:26:00,2.0,1.84568,0.00037,389.585,0.032,0.0122,0.0023,140.003,45.000,32123.71163,1.84593,389.643,41.682,45.067,45.000,0.00,0.10,-272.76,-272.83,-22,543,-948,31.6,12.8,-0.4,31.3,13.3,-0.1,5.73,1.67,5.7,35.2
2016-06-09 01:27:00,2.0,1.84591,0.00045,389.597,0.025,0.0105,0.0015,139.999,45.001,32141.31365,1.84606,389.646,41.684,45.067,45.000,0.00,0.10,-272.76,-272.83,-22,543,-948,31.6,13.2,0.0,31.3,13.5,0.1,5.73,1.62,5.6,35.2
2016-06-09 01:28:00,2.0,1.84551,0.00044,389.593,0.028,0.0079,0.0022,139.999,45.001,32154.68479,1.84564,389.628,41.718,45.067,45.000,0.00,0.10,-272.76,-272.83,-21,544,-948,31.6,13.4,0.2,31.3,13.7,0.4,5.73,1.73,5.6,35.2
2016-06-09 01:29:00,2.0,1.84570,0.00042,389.619,0.026,0.0047,0.0023,140.001,45.000,32165.14888,1.84584,389.643,41.749,45.067,45.000,0.00,0.10,-272.76,-272.83,-22,544,-948,31.6,14.0,0.9,31.4,14.3,0.9,5.73,1.81,5.7,35.2
2016-06-09 01:30:00,2.0,1.84560,0.00041,389.600,0.025,0.0038,0.0018,140.000,45.000,32175.73871,1.84562,389.618,41.763,45.067,45.000,0.00,0.10,-272.76,-272.83,-22,544,-948,31.7,13.3,0.2,31.4,13.8,0.5,5.73,1.74,5.7,35.2
2016-06-09 01:31:00,2.0,1.84575,0.00030,389.610,0.026,0.0027,0.0012,140.002,45.001,32182.33090,1.84581,389.622,41.803,45.067,45.000,0.00,0.10,-272.76,-272.84,-21,544,-948,31.7,13.4,0.3,31.4,13.8,0.4,5.73,1.63,5.7,35.2
2016-06-09 01:32:00,2.0,1.84557,0.00032,389.600,0.027,0.0026,0.0018,140.000,45.001,32190.30682,1.84563,389.612,41.812,45.067,45.000,0.00,0.10,-272.76,-272.83,-21,544,-948,31.7,13.7,0.6,31.4,14.2,0.9,5.73,1.66,5.7,35.1
2016-06-09 01:33:00,2.0,1.84576,0.00037,389.621,0.029,0.0016,0.0017,140.001,45.001,32193.86652,1.84578,389.627,41.818,45.067,45.000,0.00,0.10,-272.76,-272.83,-22,544,-948,31.7,13.3,0.2,31.4,13.7,0.4,5.73,1.78,5.7,35.0
2016-06-09 01:34:00,2.0,1.84590,0.00044,389.641,0.025,0.0017,0.0018,139.998,45.001,32199.98739,1.84593,389.649,41.858,45.067,45.000,0.00,0.10,-272.76,-272.83,-22,544,-948,31.7,13.1,0.1,31.4,13.6,0.3,5.73,1.80,5.7,35.2
2016-06-09 01:35:00,2.0,1.84585,0.00032,389.635,0.030,0.0014,0.0015,140.000,45.001,32203.52703,1.84588,389.642,41.875,45.067,45.000,0.00,0.10,-272.77,-272.83,-21,544,-948,31.8,12.7,-0.4,31.4,13.2,-0.1,5.73,1.69,5.7,35.1
2016-06-09 01:36:00,2.0,1.84576,0.00029,389.638,0.027,0.0012,0.0015,140.000,45.001,32208.28303,1.84579,389.644,41.888,45.067,45.000,0.00,0.10,-272.76,-272.83,-21,544,-948,31.8,12.3,-0.9,31.5,12.9,-0.4,5.73,1.63,5.7,35.1
2016-06-09 01:37:00,2.0,1.84581,0.00030,389.626,0.030,0.0006,0.0016,139.998,45.001,32210.76965,1.84583,389.629,41.929,45.067,45.000,0.00,0.10,-272.77,-272.83,-22,544,-948,31.8,12.1,-1.0,31.5,12.4,-0.9,5.73,1.70,5.7,35.0
2016-06-09 01:38:00,2.0,1.84579,0.00033,389.645,0.037,0.0011,0.0022,139.998,45.001,32214.40002,1.84579,389.649,41.942,45.067,45.000,0.00,0.10,-272.77,-272.83,-22,544,-948,31.8,13.1,0.1,31.5,13.2,0.0,5.73,1.80,5.7,34.9
2016-06-09 01:39:00,2.0,1.84579,0.00042,389.636,0.034,0.0007,0.0018,140.001,45.001,32218.37348,1.84580,389.639,41.975,45.067,45.000,0.00,0.10,-272.76,-272.83,-21,544,-948,31.9,13.7,0.7,31.6,14.0,0.8,5.73,1.77,5.7,35.0
2016-06-09 01:40:00,2.0,1.84562,0.00034,389.634,0.037,0.0013,0.0019,139.999,45.001,32221.75602,1.84568,389.642,42.000,45.067,45.000,0.00,0.10,-272.75,-272.83,-22,544,-948,31.9,13.1,0.1,31.6,13.5,0.3,5.73,1.65,5.7,34.9
2016-06-09 01:41:00,2.0,1.84596,0.00038,389.631,0.026,0.0019,0.0019,139.998,45.001,32220.28071,1.84597,389.639,42.000,45.067,45.000,0.00,0.10,-272.76,-272.83,-22,544,-948,31.9,14.8,1.8,31.6,14.9,1.7,5.73,1.64,5.8,35.0
2016-06-09 01:42:00,2.0,1.84581,0.00028,389.614,0.030,0.0008,0.0014,139.999,45.001,32222.04320,1.84583,389.618,42.025,45.067,45.000,0.00,0.10,-272.76,-272.83,-21,544,-948,31.9,14.9,1.9,31.6,15.3,2.1,5.73,1.75,5.8,35.0
2016-06-09 01:43:00,2.0,1.84577,0.00025,389.643,0.029,0.0010,0.0018,139.996,45.001,32220.56757,1.84579,389.647,42.058,45.067,45.000,0.00,0.10,-272.76,-272.83,-21,544,-948,31.9,15.2,2.2,31.6,15.6,2.4,5.73,1.81,5.8,34.9
2016-06-09 01:44:00,2.0,1.84585,0.00039,389.628,0.033,0.0001,0.0019,140.000,45.001,32222.75974,1.84587,389.628,42.089,45.067,45.000,0.00,0.10,-272.77,-272.83,-22,544,-948,32.0,14.3,1.4,31.6,15.1,1.9,5.73,1.73,5.8,34.9
2016-06-09 01:45:00,2.0,1.84567,0.00045,389.635,0.016,0.0006,0.0017,139.998,45.001,32227.02507,1.84567,389.637,42.126,45.067,45.000,0.00,0.10,-272.76,-272.84,-22,544,-948,32.0,14.0,1.1,31.7,14.3,1.1,5.73,1.64,5.8,34.9
2016-06-09 01:46:00,2.0,1.84579,0.00040,389.640,0.027,0.0003,0.0019,140.000,45.001,32229.81323,1.84576,389.641,42.160,45.067,45.000,0.00,0.10,-272.75,-272.83,-21,544,-948,32.0,14.6,1.8,31.7,15.0,1.9,5.73,1.66,5.8,35.0
2016-06-09 01:47:00,2.0,1.84601,0.00028,389.632,0.038,0.0007,0.0019,139.998,45.001,32227.83816,1.84605,389.637,42.181,45.067,45.000,0.00,0.10,-272.75,-272.83,-21,544,-948,32.0,15.0,2.1,31.7,15.4,2.3,5.73,1.78,5.8,35.0
2016-06-09 01:48:00,2.0,1.84594,0.00043,389.627,0.036,0.0005,0.0026,139.998,45.001,32229.43657,1.84594,389.629,42.199,45.067,45.000,0.00,0.10,-272.77,-272.83,-22,544,-948,32.0,15.1,2.2,31.7,15.6,2.4,5.73,1.80,5.8,35.0
2016-06-09 01:49:00,2.0,1.84610,0.00034,389.627,0.031,0.0007,0.0017,140.001,45.001,32230.30235,1.84613,389.629,42.223,45.067,45.000,0.00,0.10,-272.76,-272.82,-21,544,-948,32.1,15.0,2.2,31.8,15.5,2.4,5.73,1.71,5.9,35.1
2016-06-09 01:50:00,4.0,1.77484,0.02589,371.184,7.222,0.0042,0.0036,140.003,45.001,31823.40119,1.77761,371.562,42.250,45.067,45.000,0.00,0.10,-272.75,-272.82,-21,482,-949,32.1,15.3,2.5,31.8,15.8,2.6,5.73,1.59,5.9,35.0
2016-06-09 01:51:00,4.0,1.76355,0.00030,367.764,0.028,0.0009,0.0017,140.001,45.001,31783.20362,1.76357,367.767,42.265,45.067,45.000,0.00,0.10,-272.77,-272.83,-21,479,-949,32.1,15.1,2.3,31.8,15.7,2.5,5.73,1.68,5.9,35.0
2016-06-09 01:52:00,4.0,1.76348,0.00031,367.769,0.020,0.0013,0.0018,139.996,45.001,31768.12458,1.76350,367.773,42.302,45.067,45.000,0.00,0.10,-272.76,-272.83,-22,478,-949,32.1,15.2,2.4,31.8,15.8,2.7,5.73,1.78,5.9,35.0
2016-06-09 01:53:00,4.0,1.76350,0.00030,367.753,0.040,0.0019,0.0019,140.000,45.001,31763.82409,1.76352,367.762,42.313,45.067,45.000,0.00,0.10,-272.75,-272.82,-21,478,-949,32.1,15.3,2.4,31.8,15.8,2.7,5.73,1.79,5.9,35.0
2016-06-09 01:54:00,4.0,1.76358,0.00034,367.736,0.035,0.0018,0.0020,140.000,45.001,31755.15141,1.76361,367.744,42.313,45.067,45.000,0.00,0.10,-272.76,-272.83,-21,477,-949,32.1,15.4,2.6,31.8,15.9,2.8,5.73,1.69,5.9,35.1
2016-06-09 01:55:00,4.0,1.76345,0.00030,367.715,0.030,0.0014,0.0023,140.001,45.001,31749.89568,1.76345,367.720,42.316,45.067,45.000,0.00,0.10,-272.76,-272.83,-22,477,-949,32.2,15.5,2.7,31.9,16.1,3.0,5.73,1.62,5.9,35.1
2016-06-09 01:56:00,4.0,1.76337,0.00036,367.718,0.018,0.0018,0.0022,140.001,45.001,31746.68712,1.76343,367.726,42.319,45.067,45.000,0.00,0.10,-272.75,-272.82,-22,477,-949,32.2,15.3,2.5,31.9,15.9,2.8,5.73,1.69,6.0,35.1
2016-06-09 01:57:00,4.0,1.76337,0.00031,367.717,0.038,0.0006,0.0016,139.997,45.001,31740.86051,1.76339,367.721,42.322,45.067,45.000,0.00,0.10,-272.76,-272.83,-21,477,-949,32.2,15.3,2.5,31.9,15.9,2.8,5.73,1.79,6.0,35.1
2016-06-09 01:58:00,4.0,1.76334,0.00041,367.723,0.029,0.0010,0.0015,139.996,45.001,31736.33327,1.76333,367.727,42.320,45.067,45.000,0.00,0.10,-272.77,-272.84,-21,476,-949,32.2,15.2,2.5,31.9,15.8,2.8,5.73,1.79,6.0,35.2